Weather History for KDLH - January, 2014

Change the Weather History Date:

Friday, January 17, 2014

  Actual Average Record
Temperature  
Mean Temperature 5 °F 10 °F  
Max Temperature 12 °F 19 °F 45 °F (1884)
Min Temperature -3 °F 1 °F -38 °F (1982)
Degree Days  
Heating Degree Days 60 55  
Month to date heating degree days 1044 932  
Since 1 July heating degree days 4867 4701  
Cooling Degree Days 0 0  
Month to date cooling degree days 0 0  
Year to date cooling degree days 0 0  
Moisture  
Dew Point -3 °F    
Average Humidity 71    
Maximum Humidity 83    
Minimum Humidity 58    
Precipitation  
Precipitation T in 0.03 in 0.49 in (1950)
Month to date precipitation 0.54 0.58  
Year to date precipitation 0.54 0.58  
Snow  
Snow T in 0.60 in 6.30 in (1996)
Month to date snowfall 5.2 11.4  
Since 1 July snowfall 50.1 45.2  
Snow Depth 19.00 in    
Sea Level Pressure  
Sea Level Pressure 29.95 in    
Wind  
Wind Speed 10 mph (NNW)    
Max Wind Speed 25 mph    
Max Gust Speed 33 mph    
Visibility 10 miles    
Events Snow    
T = Trace of Precipitation, MM = Missing Value Source: NWS Daily Summary

Daily Weather History Graph

Daily Weather History Graph

Search for Another Location

Airport or City:

Trip Planner

Search our weather history database for the weather conditions in past years. The results will help you decide how hot, cold, wet, or windy it might be!

Date:

Astronomy

Jan. 17, 2014 Rise Set
Actual Time 7:48 AM CST 4:50 PM CST
Civil Twilight 7:14 AM CST 5:24 PM CST
Nautical Twilight 6:36 AM CST 6:01 PM CST
Astronomical Twilight 6:00 AM CST 6:37 PM CST
Moon 6:46 PM CST (1/17) 8:07 AM CST (1/17)
Length of Visible Light 10h 09m
Length of Day
9h 01m
Full, 98% of the Moon is Illuminated
Jan 17
Full
Jan 23
Last Quarter
Jan 30
New
Feb 6
First Quarter
Feb 14
Full

Hourly Weather History & Observations

Time (CST) Temp. Windchill Dew Point Humidity Pressure Visibility Wind Dir Wind Speed Gust Speed Precip Events Conditions
12:55 AM 6.1 °F -15.2 °F -0.9 °F 73% 29.89 in 6.0 mi NNW 23.0 mph 31.1 mph N/A Snow Blowing Snow
1:20 AM 6.8 °F -14.3 °F -0.4 °F 72% 29.79 in 6.0 mi NNW 23.0 mph 31.1 mph N/A Snow Blowing Snow
1:45 AM 6.8 °F -12.9 °F -0.4 °F 72% 29.79 in 10.0 mi NNW 19.6 mph 25.3 mph 0.01 in   Mostly Cloudy
1:55 AM 6.1 °F -14.8 °F -0.9 °F 73% 29.91 in 9.0 mi NNW 21.9 mph 29.9 mph 0.01 in   Scattered Clouds
2:55 AM 5.0 °F -14.7 °F -2.0 °F 73% 29.92 in 10.0 mi NNW 18.4 mph 28.8 mph N/A   Partly Cloudy
3:55 AM 5.0 °F -15.2 °F -2.0 °F 73% 29.92 in 8.0 mi NNW 19.6 mph 28.8 mph N/A   Partly Cloudy
4:55 AM 3.9 °F -16.1 °F -2.0 °F 76% 29.93 in 10.0 mi North 18.4 mph 27.6 mph 0.01 in   Partly Cloudy
5:55 AM 3.0 °F -17.3 °F -2.9 °F 76% 29.96 in 10.0 mi NNW 18.4 mph - N/A   Partly Cloudy
6:55 AM 1.0 °F -17.3 °F -4.0 °F 79% 30.00 in 10.0 mi NNW 13.8 mph 18.4 mph N/A   Partly Cloudy
7:55 AM -0.0 °F -20.1 °F -5.1 °F 79% 30.01 in 10.0 mi NNW 16.1 mph - N/A   Partly Cloudy
8:55 AM -0.0 °F -19.4 °F -6.0 °F 76% 30.01 in 10.0 mi NNW 15.0 mph - N/A   Partly Cloudy
9:55 AM 1.0 °F -17.3 °F -6.0 °F 72% 30.02 in 10.0 mi NNW 13.8 mph - N/A   Partly Cloudy
10:55 AM 3.9 °F -11.3 °F -5.1 °F 66% 30.04 in 10.0 mi NW 10.4 mph - N/A   Clear
11:55 AM 7.0 °F -6.6 °F -4.0 °F 61% 30.03 in 10.0 mi NNW 9.2 mph - N/A   Clear
12:55 PM 10.0 °F -1.9 °F -2.0 °F 58% 30.00 in 10.0 mi NNW 8.1 mph - N/A   Clear
1:55 PM 10.9 °F 1.4 °F -0.9 °F 59% 29.99 in 10.0 mi North 5.8 mph - N/A   Clear
2:55 PM 12.0 °F 1.5 °F -0.9 °F 56% 29.98 in 10.0 mi NW 6.9 mph - N/A   Clear
3:55 PM 10.9 °F 1.4 °F -2.0 °F 56% 29.97 in 10.0 mi WNW 5.8 mph - N/A   Clear
4:55 PM 9.0 °F 0.6 °F -2.0 °F 61% 29.98 in 10.0 mi WNW 4.6 mph - N/A   Clear
5:55 PM 5.0 °F -2.1 °F -4.0 °F 66% 29.98 in 10.0 mi NW 3.5 mph - N/A   Clear
6:55 PM -0.0 °F -7.9 °F -4.0 °F 83% 29.98 in 10.0 mi NW 3.5 mph - N/A   Clear
7:55 PM -0.0 °F - -5.1 °F 79% 29.96 in 10.0 mi Calm Calm - N/A   Partly Cloudy
8:55 PM -0.0 °F - -6.0 °F 76% 29.93 in 10.0 mi Calm Calm - N/A   Partly Cloudy
9:55 PM -0.0 °F - -6.0 °F 76% 29.91 in 10.0 mi Calm Calm - N/A   Clear
10:55 PM 3.0 °F -4.4 °F -2.9 °F 76% 29.87 in 10.0 mi SSE 3.5 mph - N/A   Clear
11:55 PM 5.0 °F - -2.0 °F 73% 29.85 in 10.0 mi Calm Calm - N/A   Mostly Cloudy